Regional Weather Roundup
Issued by NWS Sterling, VA

Home | Current Version | Previous Version | Text Only | Print | Product List | Glossary Off
Versions: 1 2 3 4 5 6 7 8 9 10 11 12 13 14 15 16 17 18 19 20 21 22 23 24 25 26 27 28 29 30 31 32 33 34 35 36 37 38 39 40 41 42 43 44 45 46 47 48 49 50

000
ASUS41 KLWX 041010
RWRLWX

REGIONAL WEATHER ROUNDUP
NATIONAL WEATHER SERVICE BALTIMORE MD/WASHINGTON DC
500 AM EST WED MAR 04 2015

Note: "FAIR" indicates few or no clouds below 12,000 feet
with no significant weather and/or obstructions to visibility.
 TC=TEMPERATURE CELSIUS

 * =Non NWS site. Station does not report precipitation (e.g. rain,
    snow, etc.), thunder, or fog.

DCZ001-MDZ009-015-VAZ040>042-051-053>054-041100-
WASHINGTON METRO

CITY           SKY/WX    TMP DP  RH WIND       PRES   REMARKS
WASHINGTON NAT LGT RAIN  40  36  86 S7        29.85F
DULLES         CLOUDY    37  34  89 S5        29.82S
ANDREWS AFB    CLOUDY    38  37  96 S10       29.82F
FT BELVOIR     LGT RAIN  39  37  92 VRB2      29.86S
QUANTICO       HVY RAIN  38  36  92 S5        29.89R FOG
COLLEGE PARK*  CLOUDY    39  37  93 S3        29.84R
LEESBURG*      CLOUDY    36  36 100 CALM      29.83S
MANASSAS*      CLOUDY    37  37 100 S7        29.85R
GAITHERSBURG*  CLOUDY    36  32  87 CALM      29.86R

$$

MDZ006>007-011-014-041100-
BALTIMORE METRO

CITY           SKY/WX    TMP DP  RH WIND       PRES   REMARKS
BWI AIRPORT    CLOUDY    38  35  89 SW6       29.82R
MD SCIENCE CTR   N/A     38  35  89 MISG      29.83S
MARTIN STATE   PTCLDY    34  34 100 CALM      29.84S FOG
ANNAPOLIS      LGT RAIN  39  37  92 CALM      29.83S
FORT MEADE*    CLOUDY    36  34  93 SW3       29.85R

$$

MDZ012-015-019>023-041100-
MARYLAND EASTERN SHORE

CITY           SKY/WX    TMP DP  RH WIND       PRES   REMARKS
OCEAN CITY     CLOUDY    48  47  96 W15G22    29.86R
SALISBURY      CLOUDY    46  43  89 W14G21    29.87R FOG
BAY BRIDGE AP* LGT RAIN  37  37 100 S6        29.84S
CAMBRIDGE*     CLOUDY    43  41  93 NW5       29.88S
EASTON*        RAIN      41  41 100 SW9       29.89F

$$

MDZ017>025-041100-
SOUTHERN MARYLAND

CITY           SKY/WX    TMP DP  RH WIND       PRES   REMARKS
PATUXENT RIVER LGT RAIN  44  40  85 W10       29.88R FOG
ST INIGOES     CLOUDY    44  40  85 W7        29.87R
LEONARDTOWN*   CLOUDY    43  39  87 W7        29.89R

$$

MDZ003>005-041100-
NORTH CENTRAL MARYLAND

CITY           SKY/WX    TMP DP  RH WIND       PRES   REMARKS
FREDERICK*     CLOUDY    36  32  87 S3        29.85R
HAGERSTOWN APT CLOUDY    35  33  92 CALM      29.82R FOG
WESTMINSTER*   CLOUDY    36  34  93 SW8       29.79S

$$

MDZ501>502-041100-
WESTERN MARYLAND

CITY           SKY/WX    TMP DP  RH WIND       PRES   REMARKS
OAKLAND*       CLOUDY    37 N/A N/A W9G17     29.81F FOG
CUMBERLAND*    CLOUDY    34  34 100 MISG        N/A

$$

VAZ025>031-041100-
SHENANDOAH VALLEY

CITY           SKY/WX    TMP DP  RH WIND       PRES   REMARKS
WINCHESTER*    CLOUDY    43  37  81 SW3       29.82R
FRONT ROYAL*   CLOUDY    43  43 100 S3        29.80S
LURAY*         CLOUDY    45  45 100 CALM      29.82S FOG
NEW MARKET*    CLOUDY    36  35  97 CALM      29.82S
STAUNTON*      DRZL/FOG  42  41  93 CALM      29.85R VSB 1/2
WAYNESBORO*    CLOUDY    46  45  97 NW12G17   29.84R

$$

WVZ021-048>050-054>055-041100-
EASTERN WEST VIRGINIA PANHANDLE

CITY           SKY/WX    TMP DP  RH WIND       PRES   REMARKS
MARTINSBURG    CLOUDY    37  34  89 NW3       29.83R FOG
PETERSBURG*    NOT AVBL

$$

VAZ036>039-050-041100-
CENTRAL FOOTHILLS

CITY           SKY/WX    TMP DP  RH WIND       PRES   REMARKS
CHARLOTTESVILL CLOUDY    40  36  86 VRB5      29.86R
CULPEPER*      DRIZZLE   39  37  93 S3        29.86S
ORANGE*        CLOUDY    39  37  93 CALM      29.89R FOG
GORDONSVILLE*  CLOUDY    39  37  90 CALM      29.87R
WARRENTON*     CLOUDY    39  39 100 S8        29.84F FOG

$$

VAZ055>057-041100-
NORTH AND CENTRAL PIEDMONT

CITY           SKY/WX    TMP DP  RH WIND       PRES   REMARKS
FREDERICKSBRG* LGT RAIN  43  43 100 NW6       29.89R
STAFFORD*      RAIN      39  32  76 N3        29.92R

$$

NCZ024-NYZ072-PAZ021-071-VAZ022-071-041100-
OTHER REGIONAL OBSERVATIONS

CITY           SKY/WX    TMP DP  RH WIND       PRES   REMARKS
NEW YORK CITY  CLOUDY    36  31  82 W3        29.80R
PHILADELPHIA   LGT RAIN  35  33  92 SW10      29.82S FOG     WCI  27
PITTSBURGH     LGT SNOW  34  33  96 W7        29.85R FOG
ROANOKE        RAIN      37  36  96 S5        29.90R FOG
RICHMOND       CLOUDY    49  46  90 SW12      29.88S
RALEIGH        FOG       41  39  93 SW12      30.00S VSB 1/8

$$

ANZ530>537-041100-
MARINE OBSERVATIONS

STATION/POSITION TIME  TEMP    WIND        PRES
                       AIR SEA DIR/SP/G
                 (UTC) (F)     (DEG/KT/KT) (MB)
THOMAS PT LIGHT  1000   37 32  190/ 14/ 15 1011.2F
BALT KEY BRIDGE  0900   38     190/  4/  5 1009.7F
COVE POINT       0900   44     260/ 21/ 25 1009.7R
LEWISETTA        0900   45 33  230/ 13/ 16 1010.1F
SOLOMONS ISLAND  0900      33                N/A

$$



USA.gov is the U.S. government's official web portal to all federal, state and local government web resources and services.